Track COSMOS 2426 (GLONASS) now! COSMOS 2426 (GLONASS) is classified as:
1 29671U 06062B 24325.08591073 .00000008 00000-0 00000-0 0 9996 2 29671 64.6980 213.6269 0021319 178.4846 7.6935 2.12963307139324